Location: Bretagne
(43.8474°N, 0.4650°W)
Time: 14:40:36
(UTC+00:00)

Cosmos 2360 - Pass Details

Date: 15 January 2026
Orbit: 847 x 855 km, 70.7° (Epoch: 17 February)

Event Time Altitude Azimuth Distance (km) Brightness Sun altitude
Rises 18:40:05 0° 336° (NNW) 3,431 7.5 -19.4°
Reaches altitude 10° 18:42:34 10° 339° (NNW) 2,490 6.8 -19.9°
Maximum altitude 18:48:16 67° 62° (ENE) 923 4.1 -20.9°
Enters shadow 18:52:24 19° 142° (SE) 1,914 5.8 -21.6°
